GEFSSGP_prec_meanprecacc_228.txt.gz
Total_Precipitation_Accumulation
1.51 1.44 2.24 3.31 3.82 3.00 2.62 2.39 1.94 1.76 1.40 1.12 0.92 0.92 1.27 1.61 1.76 2.01 2.11 2.17 1.40 1.23 1.46 1.99 2.52 2.33 2.12 1.98 1.88 1.73 1.50 1.19 1.03 1.02 1.01 0.91 0.84 0.82 0.80 0.78 0.72 0.70 0.68 0.69 0.81 0.97 0.98 1.00 1.03
1.16 1.78 2.85 3.84 3.39 2.58 2.61 2.32 1.98 1.66 1.22 0.89 0.73 0.72 0.81 0.76 0.67 1.12 2.20 2.42 1.44 1.16 1.34 1.60 2.29 2.18 2.08 1.98 1.77 1.75 1.52 1.18 1.07 1.04 0.98 0.85 0.79 0.83 0.90 0.90 0.78 0.72 0.68 0.65 0.70 0.92 0.95 0.93 0.98
1.62 2.51 3.45 3.62 2.66 2.41 2.59 2.32 1.91 1.27 0.91 0.81 0.73 0.64 0.72 0.89 0.92 1.47 2.19 1.82 1.34 1.18 1.36 1.93 2.33 2.01 1.92 1.78 1.65 1.70 1.58 1.33 1.18 1.06 0.97 0.90 0.85 0.82 0.89 0.85 0.82 0.80 0.76 0.78 0.85 1.01 0.98 0.90 0.88
2.08 3.02 3.39 3.03 2.40 2.08 2.06 2.03 1.70 1.24 0.94 0.65 0.62 0.68 0.68 0.99 1.11 1.46 1.64 1.31 1.16 1.18 1.34 1.79 2.01 1.80 1.72 1.65 1.56 1.52 1.58 1.56 1.32 1.12 1.03 1.00 0.94 0.94 0.95 0.94 0.86 0.90 0.91 0.95 0.97 0.99 0.99 0.97 0.93
2.52 3.10 3.08 2.83 2.46 2.12 1.75 1.63 1.53 1.34 1.08 0.76 0.73 0.84 1.06 1.55 1.47 1.42 1.40 1.17 1.02 1.03 1.15 1.48 1.75 1.61 1.55 1.51 1.49 1.41 1.51 1.59 1.43 1.14 1.13 1.13 1.07 1.06 1.06 1.06 0.96 1.00 0.97 0.97 1.01 0.94 0.98 0.99 0.97
2.96 2.90 2.93 2.85 2.68 2.32 1.89 1.45 1.32 1.24 0.98 0.79 0.83 0.95 1.42 1.88 1.82 1.74 1.47 1.45 1.22 1.08 1.05 1.20 1.49 1.51 1.41 1.44 1.54 1.43 1.41 1.50 1.41 1.23 1.19 1.11 1.10 1.13 1.15 1.07 1.03 1.02 1.02 1.05 1.07 1.03 1.00 0.95 0.96
2.83 2.71 2.71 2.35 2.45 2.68 2.04 1.30 1.33 1.28 1.16 0.95 0.74 0.94 1.39 1.71 1.62 1.59 1.46 1.46 1.47 1.40 1.28 1.13 1.14 1.25 1.29 1.37 1.49 1.45 1.38 1.35 1.28 1.29 1.25 1.22 1.19 1.13 1.07 1.03 1.04 1.04 1.05 1.10 1.13 1.06 1.02 1.00 1.02
2.33 2.38 2.31 2.28 2.45 2.59 1.84 1.14 1.03 1.17 1.12 0.76 0.80 1.03 1.28 1.30 1.26 1.29 1.38 1.55 1.53 1.47 1.34 1.13 1.01 1.02 1.11 1.09 1.24 1.46 1.49 1.38 1.26 1.27 1.28 1.27 1.20 1.09 1.02 0.94 1.00 1.08 1.09 1.18 1.20 1.12 1.10 1.10 1.05
1.94 2.35 2.58 2.63 2.52 2.20 1.47 1.18 0.96 0.86 0.85 0.78 0.77 0.83 0.94 0.87 0.99 1.12 1.12 1.16 1.27 1.22 1.15 1.07 1.01 1.04 1.13 1.17 1.16 1.41 1.51 1.39 1.18 1.09 1.16 1.15 0.97 0.95 0.97 0.94 1.15 1.15 1.24 1.31 1.31 1.26 1.22 1.12 1.08
1.97 2.31 2.38 1.96 1.57 1.48 1.27 1.13 1.03 1.06 1.11 0.92 0.84 0.86 0.90 0.89 0.94 1.00 1.00 0.99 1.01 0.95 0.86 0.82 0.83 0.93 1.03 1.09 1.42 1.64 1.45 1.35 1.06 1.06 0.97 0.99 1.05 1.13 0.96 1.00 1.32 1.33 1.38 1.38 1.40 1.37 1.25 1.02 0.86
1.64 1.97 1.69 1.46 1.20 1.00 1.02 1.03 0.84 0.99 1.17 0.97 0.89 0.86 0.91 0.95 0.94 0.97 0.95 0.84 0.79 0.72 0.65 0.60 0.56 0.59 0.66 0.86 1.21 1.49 1.62 1.60 1.51 1.29 1.06 1.04 0.91 0.81 0.77 0.82 0.99 1.09 1.21 1.20 1.21 1.19 1.02 0.91 0.88
1.58 1.53 1.35 1.34 1.00 0.96 0.95 0.89 0.84 0.85 0.93 0.84 0.91 0.83 0.83 0.89 0.90 0.87 0.87 0.82 0.71 0.68 0.64 0.55 0.53 0.48 0.50 0.57 0.75 0.94 1.11 1.20 1.22 1.10 0.96 1.05 0.93 0.82 0.83 0.83 0.84 0.87 1.01 1.16 1.17 1.14 1.01 0.90 0.81
1.64 1.60 1.29 1.06 0.95 0.89 0.82 0.78 0.79 0.84 0.79 0.72 0.84 0.90 0.92 0.91 0.89 0.94 0.96 0.92 0.80 0.80 0.80 0.69 0.57 0.52 0.50 0.54 0.60 0.66 0.83 0.92 0.94 0.97 0.90 0.95 0.97 0.95 0.91 0.83 0.85 0.79 0.90 1.07 1.17 1.13 1.02 1.00 0.94
1.46 1.44 1.46 1.27 1.05 0.93 0.92 0.79 0.68 0.84 0.82 0.79 0.88 0.95 0.93 0.96 0.87 0.85 0.89 0.95 0.89 0.86 0.84 0.81 0.68 0.63 0.59 0.54 0.56 0.59 0.68 0.77 0.80 0.78 0.77 0.87 0.97 0.98 0.96 0.93 0.96 0.93 0.97 1.12 1.14 1.06 1.10 1.16 1.05
1.32 1.56 1.54 1.37 1.12 1.01 1.01 1.07 0.80 0.75 0.82 0.85 0.95 0.89 0.85 0.89 0.85 0.82 0.80 0.80 0.85 0.84 0.80 0.79 0.77 0.76 0.73 0.67 0.63 0.62 0.68 0.77 0.78 0.75 0.70 0.71 0.80 0.86 0.90 0.94 0.95 0.99 1.09 1.16 1.21 1.06 1.10 1.08 0.99
1.65 1.96 2.03 1.48 1.24 1.07 1.19 1.33 0.88 0.80 0.82 0.76 0.78 0.75 0.75 0.79 0.76 0.74 0.78 0.73 0.73 0.70 0.69 0.73 0.72 0.73 0.77 0.76 0.76 0.79 0.77 0.83 0.79 0.77 0.71 0.67 0.72 0.80 0.94 0.97 0.94 0.97 1.12 1.24 1.30 1.22 1.20 1.16 1.11
1.83 1.87 1.73 1.43 1.16 1.07 1.08 1.06 0.81 0.81 0.83 0.69 0.67 0.66 0.65 0.63 0.61 0.59 0.65 0.70 0.67 0.61 0.62 0.63 0.65 0.64 0.71 0.77 0.79 0.90 0.91 0.91 0.87 0.85 0.77 0.74 0.80 0.88 1.07 1.19 1.19 1.18 1.21 1.22 1.19 1.27 1.28 1.27 1.27
1.52 1.41 1.28 1.19 1.00 0.94 0.91 0.77 0.65 0.68 0.70 0.64 0.56 0.53 0.53 0.52 0.48 0.48 0.50 0.54 0.57 0.57 0.56 0.55 0.60 0.61 0.65 0.77 0.87 1.02 1.14 1.09 1.10 1.03 0.92 0.93 1.08 1.23 1.39 1.39 1.47 1.55 1.45 1.42 1.38 1.41 1.37 1.30 1.35
1.01 1.08 1.09 1.00 0.78 0.78 0.75 0.62 0.58 0.59 0.63 0.61 0.54 0.46 0.43 0.44 0.41 0.40 0.41 0.45 0.46 0.49 0.52 0.51 0.51 0.59 0.63 0.67 0.80 1.01 1.28 1.39 1.47 1.41 1.23 1.18 1.30 1.55 1.78 1.74 1.81 1.88 1.79 1.77 1.79 2.00 1.95 1.67 1.43
0.98 1.14 1.11 1.00 0.71 0.65 0.64 0.53 0.46 0.48 0.56 0.52 0.49 0.45 0.38 0.37 0.32 0.30 0.31 0.34 0.36 0.38 0.45 0.47 0.47 0.55 0.60 0.65 0.81 0.97 1.11 1.11 1.28 1.43 1.41 1.32 1.31 1.47 1.61 1.87 1.99 1.96 2.04 2.17 2.17 2.54 2.67 2.21 1.77
0.96 0.97 0.95 0.93 0.75 0.63 0.57 0.58 0.43 0.41 0.45 0.42 0.39 0.38 0.33 0.31 0.30 0.30 0.29 0.28 0.29 0.30 0.31 0.33 0.37 0.45 0.57 0.70 0.91 1.11 1.29 1.38 1.44 1.38 1.46 1.47 1.39 1.44 1.56 1.70 1.86 1.89 1.99 2.12 2.26 2.60 3.11 2.88 2.27
0.88 0.63 0.58 0.64 0.80 0.81 0.65 0.78 0.51 0.44 0.48 0.43 0.37 0.32 0.30 0.29 0.29 0.35 0.31 0.34 0.31 0.27 0.25 0.26 0.34 0.48 0.67 0.88 1.10 1.33 1.53 1.57 1.46 1.52 1.55 1.44 1.36 1.33 1.41 1.54 1.68 1.81 1.85 1.99 2.10 2.23 2.76 3.14 2.83
0.59 0.49 0.46 0.53 0.69 0.66 0.49 0.59 0.51 0.43 0.53 0.48 0.41 0.37 0.32 0.29 0.29 0.31 0.30 0.33 0.32 0.30 0.31 0.36 0.54 0.78 1.03 1.25 1.50 1.76 1.74 1.63 1.53 1.54 1.52 1.46 1.47 1.43 1.42 1.57 1.64 1.66 1.73 1.83 2.17 2.44 2.72 2.95 2.93
0.40 0.46 0.51 0.57 0.71 0.70 0.43 0.49 0.54 0.42 0.45 0.48 0.46 0.39 0.32 0.27 0.32 0.39 0.45 0.53 0.56 0.58 0.72 0.90 1.16 1.34 1.45 1.56 1.71 1.82 1.77 1.77 1.71 1.54 1.45 1.43 1.49 1.55 1.59 1.63 1.64 1.61 1.65 1.76 1.99 2.28 2.49 2.82 3.01
0.38 0.63 0.89 0.92 0.92 0.68 0.36 0.52 0.58 0.41 0.35 0.35 0.37 0.32 0.27 0.31 0.40 0.53 0.69 0.82 0.92 1.06 1.19 1.34 1.51 1.65 1.60 1.58 1.63 1.67 1.66 1.63 1.61 1.55 1.47 1.41 1.43 1.47 1.49 1.58 1.70 1.76 1.80 1.92 2.10 2.24 2.16 2.37 2.76
0.38 0.56 0.94 1.07 0.89 0.64 0.48 0.70 0.65 0.48 0.36 0.27 0.21 0.21 0.31 0.45 0.58 0.69 0.77 0.89 1.05 1.20 1.26 1.27 1.38 1.48 1.45 1.43 1.40 1.38 1.45 1.46 1.41 1.32 1.30 1.34 1.43 1.42 1.35 1.39 1.49 1.61 1.78 1.84 1.89 1.92 1.88 2.00 2.25
0.33 0.37 0.43 0.66 0.55 0.55 0.62 0.79 0.68 0.44 0.36 0.30 0.25 0.29 0.44 0.65 0.86 1.01 1.12 1.22 1.26 1.30 1.37 1.29 1.28 1.34 1.35 1.29 1.21 1.20 1.25 1.31 1.31 1.24 1.24 1.23 1.24 1.16 1.08 1.08 1.13 1.22 1.29 1.37 1.52 1.62 1.74 1.77 1.90
0.27 0.37 0.49 0.76 0.87 0.88 0.85 0.88 0.77 0.57 0.48 0.49 0.56 0.67 0.72 0.83 1.10 1.39 1.63 1.80 1.63 1.37 1.28 1.26 1.18 1.19 1.28 1.27 1.19 1.13 1.20 1.20 1.19 1.22 1.19 1.18 1.18 1.08 1.00 0.95 0.92 0.91 0.88 0.92 1.11 1.32 1.45 1.53 1.67
0.29 0.42 0.54 0.71 0.83 1.08 1.28 1.27 0.99 0.98 0.96 1.00 1.09 1.13 1.14 1.24 1.23 1.39 1.59 1.77 1.68 1.37 1.14 1.17 1.21 1.19 1.19 1.18 1.17 1.15 1.11 1.01 1.00 1.05 1.05 1.03 1.03 1.07 1.05 0.95 0.88 0.96 0.97 0.94 1.00 1.07 1.14 1.20 1.33
0.40 0.52 0.68 0.97 0.90 0.90 1.17 1.29 1.04 1.03 1.04 1.10 1.27 1.33 1.32 1.23 1.15 1.13 1.19 1.26 1.29 1.14 0.96 0.93 1.09 1.16 1.13 1.10 1.11 1.09 0.98 0.92 0.89 0.87 0.83 0.73 0.70 0.73 0.82 0.91 0.85 0.83 0.87 0.90 0.95 0.98 1.02 1.05 1.14

GEFSSGP_prec_meanprecacc_234.txt.gz
Total_Precipitation_Accumulation
1.51 1.46 2.26 3.32 3.84 3.02 2.63 2.40 1.97 1.79 1.42 1.15 0.94 0.95 1.30 1.63 1.79 2.05 2.15 2.20 1.44 1.26 1.51 2.08 2.62 2.41 2.18 2.05 1.98 1.85 1.61 1.28 1.12 1.08 1.06 0.95 0.88 0.86 0.83 0.82 0.77 0.75 0.73 0.72 0.86 1.02 1.03 1.05 1.08
1.16 1.78 2.85 3.84 3.40 2.59 2.62 2.33 2.00 1.69 1.24 0.91 0.74 0.74 0.82 0.77 0.68 1.15 2.26 2.46 1.48 1.19 1.37 1.65 2.37 2.28 2.16 2.05 1.85 1.81 1.58 1.23 1.13 1.11 1.04 0.90 0.83 0.87 0.94 0.93 0.82 0.78 0.72 0.68 0.73 0.95 0.99 0.99 1.02
1.63 2.51 3.45 3.62 2.67 2.42 2.61 2.35 1.95 1.30 0.93 0.82 0.74 0.64 0.73 0.90 0.94 1.50 2.24 1.86 1.38 1.21 1.41 2.00 2.43 2.09 1.99 1.84 1.70 1.74 1.62 1.38 1.24 1.11 1.02 0.96 0.90 0.86 0.93 0.90 0.86 0.85 0.81 0.81 0.88 1.04 1.01 0.95 0.92
2.08 3.03 3.39 3.03 2.41 2.10 2.08 2.05 1.74 1.27 0.96 0.65 0.63 0.69 0.69 1.02 1.15 1.50 1.69 1.37 1.23 1.22 1.39 1.93 2.14 1.86 1.77 1.70 1.60 1.56 1.62 1.61 1.38 1.17 1.08 1.05 1.00 0.99 1.00 0.99 0.91 0.97 0.96 0.98 1.00 1.02 1.04 1.02 0.99
2.53 3.10 3.08 2.83 2.47 2.15 1.79 1.66 1.56 1.35 1.09 0.76 0.73 0.85 1.08 1.59 1.53 1.46 1.44 1.26 1.13 1.09 1.19 1.56 1.88 1.70 1.61 1.57 1.54 1.46 1.56 1.64 1.48 1.20 1.18 1.19 1.13 1.13 1.12 1.11 1.01 1.06 1.04 1.02 1.05 0.98 1.04 1.07 1.06
2.96 2.90 2.93 2.85 2.69 2.35 1.93 1.49 1.33 1.25 0.99 0.79 0.83 0.96 1.46 1.96 1.87 1.77 1.50 1.50 1.30 1.14 1.10 1.24 1.56 1.58 1.47 1.49 1.59 1.47 1.46 1.56 1.46 1.29 1.25 1.17 1.15 1.22 1.24 1.13 1.08 1.06 1.06 1.09 1.12 1.07 1.08 1.07 1.09
2.84 2.71 2.71 2.35 2.45 2.69 2.06 1.32 1.34 1.29 1.17 0.95 0.74 0.94 1.41 1.75 1.65 1.61 1.48 1.49 1.51 1.44 1.32 1.17 1.17 1.28 1.32 1.39 1.52 1.48 1.41 1.39 1.33 1.36 1.32 1.29 1.28 1.24 1.15 1.09 1.08 1.09 1.12 1.18 1.20 1.12 1.09 1.12 1.15
2.34 2.38 2.31 2.28 2.46 2.61 1.86 1.16 1.04 1.18 1.13 0.77 0.80 1.04 1.29 1.31 1.28 1.32 1.40 1.57 1.56 1.51 1.38 1.16 1.04 1.04 1.14 1.11 1.26 1.49 1.52 1.42 1.32 1.34 1.34 1.35 1.30 1.16 1.10 1.00 1.05 1.12 1.14 1.27 1.28 1.20 1.15 1.18 1.14
1.94 2.35 2.58 2.63 2.53 2.21 1.50 1.20 0.97 0.87 0.85 0.78 0.77 0.85 0.95 0.88 1.00 1.14 1.13 1.17 1.29 1.24 1.16 1.08 1.03 1.06 1.15 1.18 1.17 1.44 1.53 1.44 1.24 1.17 1.22 1.20 1.02 0.98 1.00 0.98 1.20 1.21 1.30 1.40 1.38 1.34 1.29 1.19 1.15
1.97 2.31 2.38 1.96 1.57 1.49 1.29 1.14 1.03 1.07 1.11 0.92 0.85 0.86 0.90 0.89 0.95 1.01 1.00 1.00 1.02 0.96 0.87 0.83 0.84 0.94 1.04 1.10 1.42 1.64 1.47 1.38 1.12 1.14 1.02 1.01 1.06 1.13 0.97 1.05 1.38 1.40 1.45 1.46 1.48 1.44 1.34 1.08 0.90
1.64 1.98 1.69 1.46 1.20 1.01 1.04 1.05 0.85 0.99 1.18 0.97 0.90 0.87 0.92 0.96 0.94 0.97 0.95 0.84 0.80 0.73 0.65 0.60 0.57 0.59 0.67 0.87 1.21 1.50 1.63 1.62 1.57 1.36 1.13 1.10 0.94 0.82 0.78 0.85 1.02 1.12 1.25 1.24 1.25 1.23 1.04 0.95 0.91
1.58 1.55 1.37 1.35 1.01 0.96 0.96 0.90 0.85 0.86 0.94 0.85 0.92 0.84 0.83 0.89 0.90 0.88 0.88 0.82 0.72 0.69 0.64 0.55 0.53 0.49 0.50 0.58 0.75 0.95 1.13 1.23 1.27 1.15 1.00 1.07 0.95 0.84 0.84 0.86 0.86 0.88 1.02 1.18 1.18 1.16 1.02 0.92 0.84
1.64 1.61 1.30 1.07 0.95 0.89 0.83 0.79 0.80 0.85 0.79 0.72 0.85 0.91 0.92 0.91 0.89 0.94 0.97 0.92 0.81 0.81 0.81 0.70 0.58 0.52 0.52 0.55 0.61 0.67 0.84 0.94 0.98 1.01 0.93 0.97 0.99 0.97 0.92 0.84 0.85 0.79 0.91 1.07 1.17 1.13 1.04 1.03 0.97
1.46 1.45 1.46 1.27 1.05 0.94 0.93 0.81 0.70 0.85 0.83 0.80 0.89 0.95 0.93 0.96 0.87 0.86 0.90 0.95 0.90 0.86 0.85 0.82 0.69 0.64 0.61 0.56 0.58 0.60 0.70 0.78 0.81 0.79 0.79 0.89 0.99 0.99 0.97 0.94 0.97 0.93 0.98 1.13 1.15 1.06 1.11 1.18 1.09
1.33 1.56 1.55 1.39 1.13 1.01 1.02 1.10 0.82 0.76 0.84 0.87 0.96 0.90 0.85 0.90 0.85 0.82 0.81 0.81 0.86 0.85 0.81 0.80 0.78 0.78 0.75 0.69 0.65 0.64 0.70 0.78 0.78 0.75 0.70 0.73 0.82 0.87 0.91 0.94 0.95 1.00 1.10 1.17 1.22 1.07 1.12 1.10 1.03
1.65 1.97 2.05 1.49 1.25 1.08 1.21 1.34 0.90 0.83 0.84 0.77 0.80 0.77 0.76 0.80 0.77 0.75 0.78 0.74 0.74 0.71 0.70 0.74 0.73 0.75 0.78 0.78 0.78 0.81 0.79 0.85 0.80 0.78 0.72 0.68 0.74 0.81 0.95 0.98 0.95 0.98 1.13 1.25 1.32 1.24 1.23 1.19 1.15
1.83 1.87 1.74 1.44 1.17 1.07 1.09 1.07 0.82 0.83 0.85 0.71 0.69 0.68 0.66 0.65 0.63 0.59 0.65 0.70 0.68 0.62 0.63 0.64 0.66 0.65 0.73 0.78 0.81 0.92 0.94 0.94 0.89 0.86 0.78 0.75 0.82 0.91 1.10 1.21 1.20 1.18 1.22 1.23 1.20 1.29 1.32 1.31 1.30
1.52 1.41 1.29 1.20 1.01 0.95 0.92 0.78 0.66 0.70 0.71 0.65 0.57 0.53 0.53 0.53 0.49 0.48 0.50 0.55 0.58 0.59 0.58 0.56 0.62 0.62 0.66 0.78 0.89 1.05 1.17 1.13 1.13 1.06 0.94 0.94 1.10 1.26 1.44 1.42 1.49 1.56 1.46 1.43 1.39 1.43 1.39 1.32 1.36
1.01 1.08 1.10 1.00 0.79 0.79 0.76 0.63 0.59 0.61 0.64 0.62 0.55 0.47 0.44 0.45 0.43 0.41 0.43 0.48 0.49 0.52 0.54 0.53 0.52 0.60 0.64 0.68 0.81 1.02 1.31 1.41 1.50 1.44 1.25 1.18 1.31 1.56 1.81 1.76 1.83 1.90 1.81 1.78 1.79 2.00 1.95 1.67 1.44
0.98 1.15 1.12 1.01 0.72 0.66 0.65 0.55 0.48 0.49 0.56 0.52 0.49 0.47 0.40 0.39 0.34 0.31 0.32 0.36 0.37 0.40 0.46 0.48 0.48 0.55 0.60 0.65 0.82 0.97 1.12 1.12 1.31 1.44 1.41 1.32 1.32 1.48 1.62 1.89 2.01 1.98 2.07 2.20 2.18 2.55 2.68 2.21 1.77
0.96 0.98 0.96 0.94 0.77 0.64 0.59 0.59 0.45 0.42 0.46 0.43 0.40 0.40 0.34 0.32 0.32 0.31 0.30 0.29 0.30 0.31 0.32 0.34 0.37 0.46 0.58 0.71 0.91 1.11 1.29 1.38 1.45 1.38 1.47 1.48 1.40 1.45 1.56 1.71 1.86 1.90 2.02 2.16 2.27 2.61 3.12 2.88 2.27
0.89 0.65 0.60 0.67 0.83 0.85 0.68 0.80 0.53 0.46 0.49 0.43 0.37 0.33 0.31 0.30 0.31 0.37 0.33 0.35 0.32 0.28 0.25 0.27 0.35 0.48 0.68 0.88 1.10 1.33 1.54 1.57 1.47 1.52 1.56 1.44 1.37 1.33 1.41 1.54 1.68 1.82 1.86 2.01 2.11 2.24 2.76 3.15 2.83
0.59 0.50 0.48 0.55 0.72 0.69 0.52 0.62 0.53 0.44 0.54 0.49 0.41 0.37 0.33 0.30 0.31 0.33 0.31 0.34 0.33 0.31 0.31 0.36 0.55 0.79 1.03 1.25 1.50 1.76 1.74 1.63 1.54 1.55 1.53 1.47 1.47 1.44 1.44 1.57 1.65 1.67 1.74 1.86 2.19 2.46 2.73 2.95 2.94
0.41 0.47 0.52 0.59 0.72 0.72 0.45 0.50 0.55 0.42 0.46 0.49 0.46 0.39 0.32 0.28 0.33 0.40 0.46 0.54 0.56 0.59 0.73 0.91 1.17 1.35 1.45 1.57 1.72 1.82 1.77 1.77 1.72 1.54 1.46 1.45 1.50 1.56 1.59 1.64 1.64 1.62 1.67 1.78 2.01 2.31 2.53 2.83 3.01
0.39 0.64 0.90 0.94 0.94 0.69 0.37 0.53 0.59 0.42 0.36 0.36 0.38 0.32 0.27 0.31 0.41 0.54 0.70 0.83 0.94 1.06 1.21 1.35 1.52 1.65 1.60 1.58 1.63 1.68 1.67 1.64 1.61 1.55 1.47 1.41 1.43 1.47 1.50 1.58 1.70 1.77 1.81 1.93 2.11 2.26 2.19 2.38 2.76
0.39 0.57 0.95 1.07 0.90 0.64 0.48 0.71 0.67 0.49 0.36 0.28 0.22 0.21 0.31 0.46 0.59 0.70 0.78 0.89 1.06 1.22 1.28 1.28 1.38 1.49 1.46 1.43 1.41 1.39 1.46 1.47 1.41 1.32 1.30 1.34 1.43 1.42 1.36 1.39 1.50 1.62 1.79 1.85 1.90 1.93 1.91 2.01 2.26
0.34 0.38 0.43 0.67 0.56 0.55 0.62 0.79 0.69 0.45 0.38 0.31 0.26 0.30 0.45 0.66 0.86 1.01 1.12 1.23 1.27 1.32 1.39 1.31 1.29 1.35 1.35 1.30 1.21 1.20 1.26 1.32 1.32 1.24 1.25 1.24 1.24 1.16 1.08 1.08 1.15 1.23 1.29 1.38 1.53 1.62 1.75 1.79 1.91
0.28 0.37 0.50 0.77 0.88 0.88 0.85 0.89 0.77 0.58 0.49 0.50 0.57 0.67 0.73 0.84 1.11 1.39 1.64 1.80 1.63 1.37 1.29 1.27 1.20 1.21 1.29 1.28 1.20 1.14 1.21 1.22 1.20 1.22 1.19 1.19 1.18 1.09 1.00 0.96 0.93 0.92 0.88 0.92 1.12 1.32 1.45 1.54 1.69
0.29 0.43 0.54 0.72 0.83 1.08 1.29 1.28 0.99 0.98 0.96 1.00 1.09 1.14 1.14 1.24 1.24 1.40 1.59 1.77 1.68 1.37 1.15 1.18 1.23 1.21 1.21 1.21 1.19 1.16 1.13 1.03 1.02 1.06 1.06 1.04 1.04 1.08 1.06 0.96 0.89 0.98 0.98 0.94 1.01 1.07 1.15 1.21 1.34
0.40 0.52 0.68 0.97 0.91 0.90 1.18 1.30 1.05 1.03 1.05 1.11 1.28 1.34 1.33 1.24 1.15 1.14 1.19 1.26 1.29 1.15 0.97 0.94 1.10 1.17 1.14 1.12 1.13 1.09 0.99 0.93 0.90 0.89 0.85 0.74 0.71 0.74 0.83 0.92 0.86 0.84 0.88 0.91 0.97 0.99 1.03 1.07 1.16

GEFSSGP_prec_meanprecacc_240.txt.gz
Total_Precipitation_Accumulation
1.52 1.48 2.32 3.38 3.89 3.04 2.64 2.42 2.00 1.81 1.43 1.16 0.95 0.96 1.32 1.65 1.81 2.09 2.19 2.29 1.49 1.30 1.54 2.13 2.68 2.49 2.26 2.14 2.09 1.94 1.69 1.35 1.17 1.13 1.12 1.02 0.97 0.96 0.90 0.89 0.85 0.84 0.80 0.78 0.90 1.07 1.10 1.11 1.13
1.17 1.79 2.87 3.86 3.42 2.60 2.63 2.34 2.02 1.72 1.25 0.92 0.75 0.74 0.83 0.79 0.70 1.18 2.32 2.54 1.53 1.22 1.40 1.69 2.44 2.36 2.26 2.16 1.94 1.88 1.64 1.28 1.16 1.15 1.11 0.97 0.92 0.97 1.02 1.01 0.88 0.84 0.80 0.75 0.79 1.02 1.07 1.07 1.09
1.63 2.52 3.46 3.64 2.68 2.43 2.62 2.36 1.96 1.32 0.95 0.83 0.74 0.65 0.74 0.93 0.97 1.54 2.29 1.90 1.42 1.25 1.45 2.06 2.54 2.28 2.14 1.95 1.78 1.79 1.67 1.42 1.28 1.18 1.09 1.03 0.98 0.95 1.01 0.97 0.93 0.92 0.88 0.87 0.94 1.11 1.10 1.04 0.99
2.09 3.03 3.39 3.04 2.41 2.11 2.10 2.06 1.75 1.28 0.96 0.66 0.64 0.70 0.71 1.06 1.22 1.56 1.75 1.41 1.28 1.28 1.45 2.00 2.27 2.02 1.88 1.78 1.67 1.62 1.67 1.66 1.42 1.22 1.15 1.12 1.08 1.08 1.08 1.06 0.98 1.04 1.04 1.05 1.06 1.09 1.11 1.09 1.04
2.53 3.10 3.09 2.83 2.47 2.16 1.81 1.67 1.57 1.37 1.10 0.76 0.74 0.87 1.13 1.66 1.60 1.49 1.48 1.30 1.17 1.13 1.22 1.61 1.97 1.81 1.70 1.65 1.62 1.52 1.60 1.69 1.53 1.24 1.24 1.25 1.20 1.21 1.21 1.19 1.10 1.14 1.13 1.12 1.14 1.05 1.11 1.14 1.11
2.96 2.90 2.93 2.85 2.69 2.36 1.94 1.49 1.34 1.27 1.01 0.79 0.83 0.97 1.50 2.02 1.90 1.79 1.51 1.51 1.33 1.17 1.12 1.27 1.60 1.64 1.52 1.53 1.62 1.51 1.51 1.61 1.53 1.35 1.31 1.22 1.22 1.29 1.32 1.21 1.16 1.15 1.16 1.20 1.20 1.12 1.12 1.11 1.14
2.84 2.71 2.71 2.35 2.46 2.70 2.07 1.32 1.35 1.31 1.18 0.96 0.75 0.96 1.44 1.79 1.67 1.62 1.48 1.50 1.53 1.46 1.33 1.18 1.18 1.29 1.34 1.43 1.55 1.50 1.45 1.44 1.39 1.43 1.39 1.35 1.34 1.31 1.23 1.16 1.15 1.16 1.21 1.26 1.25 1.17 1.14 1.17 1.20
2.34 2.38 2.32 2.29 2.47 2.62 1.86 1.16 1.04 1.18 1.13 0.77 0.81 1.05 1.30 1.32 1.28 1.33 1.41 1.58 1.58 1.52 1.39 1.17 1.05 1.05 1.15 1.13 1.28 1.51 1.54 1.46 1.37 1.40 1.41 1.42 1.36 1.23 1.17 1.06 1.12 1.19 1.22 1.35 1.35 1.26 1.21 1.25 1.21
1.95 2.36 2.59 2.64 2.55 2.23 1.50 1.20 0.98 0.88 0.86 0.79 0.78 0.85 0.96 0.88 1.01 1.16 1.15 1.18 1.30 1.25 1.18 1.09 1.04 1.07 1.16 1.19 1.18 1.45 1.55 1.47 1.27 1.21 1.28 1.26 1.06 1.02 1.05 1.04 1.29 1.29 1.38 1.50 1.48 1.42 1.37 1.25 1.23
1.98 2.32 2.39 1.97 1.58 1.50 1.29 1.15 1.04 1.08 1.12 0.92 0.85 0.86 0.91 0.89 0.95 1.02 1.01 1.00 1.03 0.97 0.88 0.84 0.85 0.94 1.05 1.11 1.43 1.66 1.49 1.41 1.15 1.17 1.06 1.05 1.09 1.16 1.01 1.10 1.44 1.47 1.53 1.55 1.58 1.54 1.40 1.12 0.96
1.65 1.98 1.69 1.47 1.21 1.01 1.05 1.05 0.86 1.00 1.18 0.98 0.90 0.87 0.92 0.96 0.95 0.98 0.96 0.85 0.81 0.74 0.67 0.62 0.58 0.60 0.68 0.87 1.22 1.51 1.65 1.64 1.59 1.40 1.19 1.15 0.98 0.87 0.83 0.89 1.06 1.17 1.29 1.29 1.35 1.33 1.09 0.97 0.95
1.59 1.56 1.38 1.35 1.01 0.97 0.96 0.90 0.85 0.86 0.94 0.85 0.93 0.85 0.84 0.90 0.91 0.88 0.89 0.83 0.73 0.71 0.66 0.57 0.54 0.50 0.51 0.58 0.76 0.96 1.14 1.24 1.29 1.20 1.07 1.13 0.99 0.88 0.89 0.89 0.88 0.90 1.04 1.19 1.21 1.21 1.07 0.95 0.87
1.65 1.62 1.31 1.08 0.95 0.90 0.83 0.80 0.80 0.86 0.80 0.73 0.85 0.91 0.93 0.91 0.89 0.94 0.98 0.94 0.82 0.82 0.81 0.70 0.58 0.54 0.53 0.56 0.62 0.68 0.85 0.95 1.00 1.05 1.00 1.01 1.01 0.99 0.94 0.86 0.87 0.80 0.92 1.08 1.19 1.16 1.08 1.06 0.99
1.46 1.45 1.47 1.27 1.06 0.94 0.93 0.81 0.71 0.86 0.84 0.81 0.90 0.96 0.93 0.96 0.87 0.86 0.90 0.96 0.90 0.87 0.86 0.83 0.69 0.65 0.62 0.58 0.59 0.61 0.71 0.79 0.83 0.80 0.80 0.91 1.00 0.99 0.97 0.95 0.98 0.94 0.99 1.14 1.17 1.08 1.13 1.21 1.12
1.33 1.57 1.56 1.39 1.14 1.02 1.02 1.11 0.83 0.77 0.85 0.88 0.98 0.91 0.85 0.90 0.85 0.82 0.81 0.82 0.86 0.85 0.81 0.80 0.79 0.78 0.76 0.71 0.66 0.65 0.71 0.79 0.79 0.76 0.71 0.73 0.83 0.88 0.93 0.95 0.96 1.01 1.11 1.19 1.25 1.10 1.14 1.14 1.07
1.67 1.98 2.06 1.50 1.26 1.08 1.21 1.35 0.91 0.84 0.87 0.81 0.82 0.79 0.77 0.81 0.77 0.75 0.79 0.76 0.76 0.72 0.70 0.75 0.74 0.75 0.80 0.80 0.80 0.82 0.80 0.85 0.80 0.79 0.72 0.69 0.74 0.82 0.96 0.98 0.95 0.98 1.14 1.28 1.36 1.28 1.26 1.23 1.18
1.84 1.88 1.75 1.45 1.17 1.08 1.10 1.08 0.83 0.84 0.87 0.73 0.70 0.70 0.67 0.66 0.64 0.60 0.66 0.71 0.70 0.64 0.64 0.64 0.67 0.67 0.74 0.80 0.83 0.93 0.95 0.95 0.90 0.87 0.78 0.76 0.83 0.92 1.11 1.22 1.20 1.20 1.23 1.25 1.25 1.34 1.37 1.36 1.33
1.53 1.42 1.30 1.22 1.02 0.96 0.92 0.78 0.67 0.71 0.73 0.66 0.58 0.55 0.55 0.55 0.52 0.50 0.53 0.57 0.60 0.61 0.59 0.57 0.63 0.64 0.67 0.79 0.90 1.06 1.18 1.15 1.14 1.07 0.94 0.95 1.10 1.27 1.45 1.44 1.52 1.58 1.48 1.45 1.42 1.47 1.43 1.37 1.40
1.02 1.09 1.11 1.02 0.80 0.80 0.77 0.64 0.60 0.62 0.65 0.63 0.55 0.48 0.46 0.47 0.45 0.43 0.45 0.50 0.52 0.54 0.55 0.54 0.54 0.62 0.65 0.69 0.82 1.03 1.32 1.43 1.53 1.46 1.26 1.19 1.31 1.57 1.81 1.78 1.86 1.94 1.84 1.80 1.81 2.03 1.97 1.70 1.47
0.99 1.16 1.13 1.02 0.73 0.67 0.66 0.56 0.49 0.50 0.57 0.53 0.50 0.47 0.40 0.40 0.35 0.32 0.33 0.37 0.39 0.42 0.48 0.49 0.49 0.57 0.61 0.66 0.83 0.98 1.14 1.16 1.33 1.45 1.42 1.33 1.33 1.48 1.63 1.90 2.03 2.01 2.10 2.22 2.19 2.56 2.70 2.22 1.78
0.97 0.99 0.97 0.95 0.77 0.65 0.60 0.60 0.46 0.42 0.46 0.44 0.40 0.40 0.35 0.34 0.33 0.32 0.31 0.30 0.31 0.33 0.33 0.35 0.39 0.47 0.58 0.71 0.92 1.12 1.31 1.40 1.47 1.40 1.48 1.49 1.41 1.46 1.57 1.72 1.87 1.91 2.03 2.18 2.29 2.62 3.14 2.90 2.28
0.90 0.66 0.61 0.68 0.85 0.87 0.70 0.81 0.53 0.46 0.49 0.44 0.38 0.33 0.31 0.31 0.32 0.37 0.34 0.36 0.33 0.29 0.26 0.28 0.36 0.50 0.68 0.89 1.11 1.34 1.54 1.58 1.48 1.53 1.57 1.45 1.37 1.34 1.42 1.55 1.68 1.82 1.87 2.02 2.12 2.25 2.78 3.17 2.85
0.60 0.51 0.49 0.56 0.73 0.70 0.53 0.63 0.54 0.44 0.54 0.49 0.42 0.38 0.33 0.30 0.31 0.34 0.32 0.35 0.34 0.32 0.32 0.37 0.56 0.80 1.04 1.26 1.51 1.77 1.75 1.63 1.54 1.55 1.54 1.48 1.48 1.44 1.44 1.58 1.65 1.68 1.75 1.87 2.20 2.46 2.74 2.97 2.96
0.42 0.49 0.53 0.59 0.73 0.73 0.46 0.51 0.56 0.43 0.46 0.49 0.46 0.39 0.32 0.28 0.33 0.41 0.46 0.54 0.57 0.60 0.73 0.91 1.17 1.36 1.46 1.57 1.72 1.83 1.77 1.78 1.72 1.55 1.47 1.46 1.51 1.57 1.60 1.65 1.65 1.63 1.67 1.79 2.02 2.32 2.54 2.84 3.03
0.40 0.65 0.91 0.95 0.95 0.70 0.37 0.53 0.59 0.42 0.36 0.36 0.38 0.32 0.27 0.31 0.41 0.54 0.70 0.83 0.94 1.08 1.23 1.37 1.53 1.66 1.61 1.58 1.64 1.68 1.67 1.64 1.62 1.56 1.48 1.42 1.44 1.48 1.51 1.59 1.71 1.78 1.82 1.94 2.12 2.27 2.19 2.39 2.77
0.40 0.58 0.96 1.08 0.91 0.65 0.49 0.71 0.67 0.49 0.37 0.29 0.23 0.22 0.31 0.46 0.59 0.70 0.78 0.90 1.06 1.23 1.30 1.30 1.40 1.50 1.47 1.44 1.42 1.40 1.47 1.47 1.41 1.32 1.30 1.35 1.44 1.44 1.36 1.40 1.50 1.62 1.80 1.86 1.92 1.94 1.92 2.02 2.27
0.35 0.38 0.44 0.67 0.57 0.56 0.63 0.80 0.70 0.46 0.39 0.32 0.27 0.31 0.45 0.66 0.87 1.02 1.12 1.23 1.27 1.33 1.40 1.32 1.30 1.35 1.36 1.31 1.23 1.23 1.27 1.33 1.32 1.24 1.25 1.24 1.25 1.18 1.09 1.09 1.15 1.23 1.30 1.38 1.53 1.63 1.76 1.80 1.92
0.28 0.38 0.50 0.78 0.89 0.89 0.86 0.89 0.78 0.59 0.52 0.53 0.60 0.70 0.74 0.84 1.11 1.39 1.64 1.80 1.63 1.37 1.29 1.28 1.21 1.21 1.30 1.28 1.21 1.15 1.22 1.24 1.22 1.22 1.19 1.20 1.19 1.09 1.01 0.97 0.94 0.92 0.89 0.93 1.13 1.33 1.46 1.55 1.70
0.30 0.44 0.55 0.72 0.84 1.09 1.29 1.28 1.00 0.99 0.98 1.02 1.11 1.15 1.15 1.26 1.25 1.40 1.59 1.77 1.68 1.37 1.15 1.18 1.23 1.21 1.22 1.22 1.21 1.18 1.14 1.05 1.05 1.08 1.07 1.06 1.05 1.09 1.06 0.96 0.90 0.99 0.99 0.95 1.02 1.08 1.15 1.22 1.35
0.41 0.53 0.68 0.98 0.91 0.91 1.18 1.30 1.05 1.03 1.05 1.12 1.28 1.35 1.33 1.24 1.15 1.14 1.20 1.26 1.29 1.15 0.97 0.94 1.10 1.18 1.15 1.13 1.14 1.11 1.01 0.95 0.94 0.92 0.86 0.76 0.72 0.74 0.84 0.93 0.87 0.86 0.90 0.92 0.98 1.00 1.04 1.08 1.18

GEFSSGP_prec_meanprecacc_246.txt.gz
Total_Precipitation_Accumulation
1.52 1.49 2.34 3.44 4.02 3.15 2.72 2.48 2.03 1.84 1.45 1.16 0.96 0.97 1.35 1.68 1.87 2.16 2.28 2.38 1.56 1.37 1.60 2.16 2.70 2.51 2.30 2.21 2.19 2.04 1.77 1.42 1.22 1.20 1.18 1.07 1.03 1.02 0.96 0.96 0.91 0.89 0.89 0.86 0.98 1.16 1.18 1.18 1.20
1.17 1.79 2.89 3.93 3.54 2.70 2.70 2.39 2.06 1.74 1.26 0.92 0.75 0.75 0.85 0.81 0.72 1.23 2.40 2.61 1.57 1.26 1.43 1.71 2.46 2.39 2.33 2.29 2.06 1.97 1.70 1.34 1.21 1.20 1.15 1.00 0.96 1.02 1.06 1.06 0.94 0.91 0.88 0.83 0.84 1.07 1.13 1.12 1.14
1.63 2.52 3.49 3.70 2.76 2.51 2.69 2.40 1.99 1.32 0.95 0.83 0.75 0.66 0.76 0.96 1.02 1.59 2.35 1.94 1.44 1.27 1.48 2.09 2.57 2.34 2.26 2.11 1.89 1.84 1.71 1.46 1.33 1.22 1.12 1.06 1.01 0.99 1.06 1.03 0.99 0.99 0.97 0.96 0.98 1.14 1.15 1.09 1.04
2.09 3.04 3.42 3.09 2.47 2.15 2.15 2.09 1.76 1.28 0.96 0.66 0.65 0.71 0.73 1.09 1.27 1.60 1.78 1.43 1.29 1.30 1.49 2.03 2.30 2.06 1.93 1.85 1.75 1.67 1.70 1.70 1.46 1.26 1.18 1.16 1.12 1.14 1.14 1.13 1.05 1.11 1.12 1.16 1.14 1.14 1.19 1.15 1.09
2.53 3.12 3.13 2.90 2.51 2.18 1.83 1.69 1.58 1.39 1.11 0.76 0.74 0.88 1.16 1.69 1.62 1.50 1.49 1.31 1.18 1.13 1.24 1.62 1.99 1.82 1.71 1.67 1.65 1.55 1.63 1.73 1.57 1.28 1.28 1.29 1.24 1.27 1.28 1.26 1.18 1.21 1.20 1.23 1.25 1.15 1.21 1.21 1.17
2.98 2.91 2.98 2.91 2.73 2.38 1.96 1.50 1.34 1.29 1.03 0.80 0.84 0.98 1.53 2.05 1.92 1.79 1.52 1.52 1.33 1.18 1.13 1.27 1.61 1.65 1.53 1.55 1.65 1.55 1.54 1.64 1.57 1.40 1.36 1.26 1.26 1.34 1.38 1.27 1.20 1.18 1.23 1.31 1.32 1.24 1.23 1.18 1.20
2.86 2.73 2.74 2.39 2.50 2.73 2.07 1.32 1.35 1.32 1.20 0.98 0.76 0.97 1.46 1.81 1.68 1.63 1.49 1.50 1.54 1.46 1.33 1.19 1.19 1.29 1.36 1.45 1.57 1.53 1.49 1.48 1.43 1.47 1.45 1.41 1.39 1.36 1.29 1.22 1.18 1.19 1.25 1.31 1.30 1.21 1.20 1.23 1.25
2.34 2.39 2.33 2.31 2.50 2.65 1.88 1.16 1.04 1.19 1.14 0.78 0.81 1.07 1.32 1.33 1.29 1.33 1.42 1.58 1.59 1.53 1.40 1.18 1.06 1.06 1.17 1.14 1.30 1.52 1.56 1.50 1.40 1.42 1.45 1.48 1.43 1.29 1.23 1.12 1.17 1.24 1.27 1.40 1.39 1.30 1.26 1.30 1.26
1.95 2.38 2.62 2.68 2.59 2.26 1.52 1.21 0.98 0.88 0.86 0.79 0.78 0.86 0.97 0.88 1.01 1.16 1.16 1.21 1.32 1.26 1.18 1.10 1.05 1.09 1.19 1.20 1.19 1.47 1.57 1.49 1.31 1.25 1.32 1.34 1.17 1.11 1.12 1.09 1.36 1.37 1.46 1.57 1.55 1.48 1.42 1.30 1.29
1.98 2.35 2.43 1.99 1.61 1.53 1.30 1.16 1.05 1.09 1.13 0.93 0.85 0.86 0.91 0.90 0.95 1.02 1.02 1.03 1.04 0.98 0.88 0.85 0.86 0.96 1.08 1.12 1.44 1.68 1.51 1.43 1.18 1.21 1.12 1.14 1.18 1.24 1.06 1.16 1.50 1.56 1.62 1.64 1.66 1.61 1.47 1.18 1.01
1.65 2.00 1.71 1.48 1.22 1.03 1.06 1.06 0.87 1.03 1.21 0.99 0.91 0.88 0.93 0.97 0.95 0.98 0.96 0.86 0.82 0.75 0.67 0.62 0.59 0.60 0.69 0.89 1.23 1.53 1.67 1.67 1.62 1.44 1.23 1.21 1.03 0.93 0.89 0.95 1.13 1.25 1.37 1.35 1.40 1.39 1.17 1.03 1.00
1.60 1.57 1.38 1.36 1.01 0.97 0.97 0.91 0.87 0.89 0.96 0.86 0.93 0.85 0.84 0.90 0.91 0.89 0.89 0.84 0.73 0.71 0.67 0.58 0.55 0.50 0.52 0.59 0.76 0.97 1.16 1.26 1.32 1.23 1.09 1.16 1.04 0.95 0.96 0.95 0.94 0.96 1.09 1.24 1.24 1.25 1.15 0.99 0.90
1.66 1.63 1.32 1.08 0.95 0.90 0.83 0.80 0.81 0.87 0.80 0.73 0.86 0.92 0.94 0.92 0.90 0.95 1.00 0.94 0.82 0.82 0.82 0.71 0.59 0.54 0.54 0.57 0.63 0.69 0.86 0.97 1.01 1.06 1.00 1.03 1.05 1.03 0.99 0.91 0.92 0.85 0.96 1.12 1.23 1.20 1.13 1.12 1.04
1.47 1.46 1.48 1.28 1.06 0.95 0.94 0.83 0.72 0.86 0.84 0.81 0.91 0.98 0.95 0.97 0.87 0.87 0.92 0.97 0.91 0.87 0.86 0.83 0.70 0.66 0.63 0.59 0.60 0.62 0.71 0.80 0.83 0.81 0.81 0.92 1.02 1.02 1.01 0.99 1.01 0.98 1.02 1.15 1.19 1.11 1.18 1.27 1.16
1.33 1.58 1.58 1.40 1.14 1.03 1.03 1.13 0.84 0.78 0.85 0.89 0.99 0.93 0.86 0.91 0.86 0.83 0.82 0.84 0.87 0.86 0.81 0.81 0.79 0.79 0.78 0.72 0.66 0.65 0.72 0.79 0.79 0.76 0.71 0.74 0.84 0.90 0.95 0.97 0.97 1.02 1.13 1.21 1.27 1.11 1.16 1.17 1.09
1.67 2.00 2.10 1.52 1.27 1.09 1.23 1.38 0.93 0.84 0.87 0.83 0.84 0.80 0.78 0.82 0.78 0.76 0.79 0.77 0.77 0.72 0.71 0.75 0.75 0.76 0.80 0.80 0.81 0.83 0.80 0.86 0.81 0.79 0.72 0.69 0.75 0.83 0.97 0.99 0.97 0.99 1.15 1.29 1.38 1.30 1.29 1.26 1.21
1.87 1.92 1.80 1.48 1.19 1.09 1.11 1.10 0.85 0.85 0.89 0.76 0.74 0.72 0.68 0.67 0.66 0.62 0.67 0.72 0.72 0.65 0.64 0.65 0.68 0.67 0.74 0.80 0.84 0.94 0.96 0.97 0.90 0.88 0.79 0.76 0.83 0.93 1.12 1.22 1.21 1.20 1.23 1.27 1.27 1.37 1.40 1.40 1.36
1.55 1.45 1.33 1.24 1.03 0.96 0.93 0.79 0.67 0.71 0.74 0.68 0.60 0.57 0.56 0.56 0.53 0.52 0.55 0.59 0.62 0.63 0.60 0.58 0.64 0.64 0.68 0.80 0.91 1.07 1.19 1.16 1.15 1.07 0.95 0.95 1.10 1.28 1.46 1.45 1.53 1.59 1.49 1.47 1.44 1.49 1.46 1.40 1.43
1.02 1.10 1.12 1.03 0.81 0.80 0.77 0.64 0.60 0.62 0.65 0.63 0.56 0.48 0.46 0.48 0.46 0.43 0.46 0.52 0.53 0.56 0.57 0.56 0.55 0.63 0.66 0.70 0.83 1.04 1.33 1.44 1.54 1.46 1.26 1.20 1.32 1.57 1.82 1.79 1.88 1.95 1.87 1.82 1.82 2.05 2.00 1.72 1.49
1.01 1.18 1.15 1.04 0.74 0.67 0.66 0.57 0.49 0.50 0.57 0.53 0.50 0.48 0.41 0.41 0.36 0.33 0.34 0.38 0.40 0.43 0.49 0.50 0.50 0.58 0.63 0.67 0.83 0.99 1.15 1.16 1.33 1.46 1.43 1.34 1.33 1.49 1.63 1.91 2.05 2.03 2.13 2.24 2.21 2.59 2.72 2.24 1.80
0.99 1.02 0.99 0.96 0.78 0.66 0.61 0.62 0.47 0.43 0.46 0.44 0.41 0.41 0.35 0.34 0.34 0.32 0.31 0.31 0.32 0.33 0.34 0.35 0.39 0.48 0.59 0.72 0.92 1.13 1.33 1.41 1.49 1.41 1.49 1.50 1.41 1.46 1.58 1.73 1.89 1.93 2.05 2.20 2.30 2.64 3.17 2.93 2.30
0.92 0.68 0.62 0.69 0.86 0.89 0.71 0.84 0.55 0.46 0.49 0.44 0.38 0.34 0.32 0.31 0.32 0.38 0.34 0.36 0.34 0.30 0.27 0.29 0.38 0.51 0.69 0.90 1.12 1.35 1.56 1.60 1.50 1.54 1.58 1.46 1.38 1.35 1.44 1.57 1.71 1.84 1.88 2.03 2.12 2.26 2.80 3.20 2.88
0.61 0.52 0.50 0.57 0.74 0.72 0.54 0.64 0.55 0.45 0.55 0.50 0.42 0.38 0.33 0.30 0.32 0.34 0.32 0.36 0.36 0.33 0.33 0.38 0.58 0.81 1.05 1.26 1.51 1.77 1.75 1.65 1.55 1.55 1.55 1.48 1.48 1.45 1.45 1.58 1.66 1.68 1.75 1.87 2.21 2.47 2.76 3.00 2.98
0.42 0.49 0.54 0.61 0.75 0.75 0.47 0.53 0.58 0.44 0.47 0.50 0.47 0.40 0.33 0.28 0.34 0.41 0.47 0.55 0.60 0.62 0.75 0.93 1.19 1.38 1.47 1.58 1.72 1.84 1.78 1.78 1.73 1.56 1.48 1.47 1.52 1.58 1.60 1.65 1.66 1.63 1.68 1.79 2.04 2.33 2.55 2.85 3.05
0.41 0.67 0.95 1.00 0.99 0.73 0.38 0.55 0.61 0.43 0.36 0.36 0.38 0.33 0.28 0.32 0.42 0.55 0.70 0.83 0.96 1.10 1.25 1.39 1.55 1.68 1.62 1.59 1.64 1.68 1.67 1.64 1.62 1.57 1.49 1.43 1.45 1.50 1.52 1.60 1.72 1.79 1.83 1.95 2.13 2.28 2.20 2.40 2.79
0.41 0.60 1.01 1.14 0.95 0.67 0.50 0.74 0.69 0.50 0.37 0.29 0.23 0.22 0.32 0.46 0.60 0.70 0.78 0.90 1.06 1.24 1.31 1.32 1.41 1.51 1.48 1.45 1.43 1.41 1.47 1.47 1.41 1.33 1.31 1.35 1.45 1.44 1.37 1.40 1.50 1.63 1.81 1.87 1.92 1.95 1.92 2.03 2.27
0.37 0.40 0.45 0.69 0.58 0.59 0.66 0.81 0.71 0.47 0.39 0.32 0.27 0.31 0.45 0.66 0.87 1.02 1.12 1.23 1.27 1.33 1.40 1.32 1.30 1.36 1.36 1.31 1.24 1.24 1.27 1.33 1.32 1.25 1.25 1.24 1.25 1.18 1.09 1.09 1.15 1.23 1.30 1.39 1.54 1.64 1.76 1.80 1.92
0.29 0.39 0.52 0.80 0.92 0.94 0.89 0.91 0.80 0.60 0.52 0.54 0.61 0.71 0.75 0.85 1.11 1.40 1.64 1.81 1.63 1.37 1.29 1.28 1.21 1.21 1.30 1.29 1.22 1.16 1.23 1.24 1.22 1.23 1.20 1.20 1.19 1.10 1.01 0.97 0.94 0.93 0.89 0.93 1.13 1.34 1.47 1.55 1.70
0.32 0.45 0.56 0.74 0.85 1.12 1.34 1.31 1.00 0.99 0.98 1.03 1.12 1.16 1.16 1.26 1.25 1.41 1.60 1.77 1.68 1.37 1.15 1.19 1.24 1.22 1.23 1.22 1.22 1.19 1.15 1.06 1.05 1.08 1.07 1.06 1.05 1.09 1.06 0.97 0.91 0.99 1.00 0.96 1.02 1.09 1.16 1.22 1.36
0.42 0.54 0.70 1.00 0.93 0.92 1.21 1.32 1.05 1.03 1.05 1.12 1.28 1.35 1.33 1.24 1.15 1.14 1.20 1.26 1.29 1.15 0.97 0.95 1.10 1.19 1.16 1.14 1.15 1.12 1.02 0.96 0.94 0.92 0.87 0.78 0.73 0.75 0.85 0.94 0.88 0.86 0.90 0.93 0.98 1.00 1.05 1.09 1.19

GEFSSGP_prec_meanprecacc_252.txt.gz
Total_Precipitation_Accumulation
1.53 1.50 2.36 3.47 4.07 3.20 2.78 2.57 2.13 1.88 1.49 1.19 0.97 0.99 1.36 1.70 1.89 2.21 2.35 2.45 1.61 1.41 1.62 2.18 2.72 2.54 2.32 2.23 2.22 2.10 1.83 1.48 1.26 1.23 1.22 1.11 1.07 1.06 0.99 1.00 0.96 0.94 0.93 0.93 1.10 1.31 1.28 1.25 1.26
1.18 1.81 2.91 3.98 3.59 2.73 2.77 2.51 2.13 1.77 1.28 0.94 0.77 0.77 0.86 0.82 0.75 1.25 2.44 2.66 1.59 1.27 1.44 1.72 2.47 2.40 2.35 2.31 2.10 2.04 1.77 1.41 1.27 1.24 1.18 1.03 0.99 1.05 1.09 1.10 1.00 0.96 0.92 0.87 0.90 1.16 1.26 1.20 1.19
1.64 2.54 3.52 3.75 2.80 2.54 2.74 2.48 2.04 1.35 0.95 0.84 0.77 0.67 0.77 0.98 1.04 1.61 2.37 1.96 1.45 1.28 1.49 2.10 2.58 2.35 2.27 2.12 1.91 1.89 1.76 1.52 1.38 1.28 1.16 1.10 1.05 1.03 1.09 1.07 1.05 1.05 1.02 1.01 1.02 1.19 1.21 1.15 1.08
2.09 3.06 3.46 3.12 2.50 2.19 2.20 2.13 1.78 1.30 0.97 0.66 0.66 0.73 0.74 1.11 1.29 1.60 1.78 1.44 1.29 1.30 1.49 2.05 2.31 2.07 1.94 1.85 1.76 1.69 1.74 1.73 1.49 1.29 1.22 1.20 1.16 1.19 1.20 1.20 1.12 1.16 1.16 1.20 1.19 1.18 1.22 1.17 1.12
2.54 3.14 3.16 2.92 2.55 2.23 1.88 1.71 1.59 1.40 1.12 0.78 0.75 0.89 1.17 1.70 1.62 1.50 1.49 1.32 1.18 1.13 1.24 1.63 2.00 1.84 1.72 1.68 1.67 1.56 1.65 1.75 1.60 1.30 1.32 1.33 1.28 1.32 1.35 1.34 1.25 1.26 1.25 1.26 1.29 1.21 1.26 1.24 1.20
2.98 2.92 2.99 2.93 2.77 2.41 1.98 1.51 1.35 1.31 1.05 0.83 0.85 1.00 1.54 2.05 1.92 1.80 1.52 1.52 1.33 1.18 1.13 1.28 1.62 1.66 1.54 1.56 1.67 1.57 1.56 1.67 1.59 1.41 1.39 1.29 1.32 1.41 1.44 1.35 1.25 1.22 1.26 1.34 1.36 1.28 1.30 1.25 1.27
2.87 2.74 2.76 2.41 2.52 2.76 2.11 1.33 1.36 1.33 1.22 1.00 0.76 0.98 1.47 1.81 1.69 1.63 1.49 1.50 1.54 1.47 1.34 1.19 1.19 1.30 1.37 1.45 1.59 1.55 1.52 1.52 1.45 1.49 1.48 1.45 1.46 1.43 1.34 1.28 1.23 1.23 1.29 1.34 1.33 1.25 1.24 1.27 1.31
2.35 2.40 2.34 2.33 2.52 2.67 1.91 1.18 1.05 1.20 1.15 0.79 0.82 1.08 1.33 1.34 1.30 1.33 1.42 1.59 1.60 1.54 1.41 1.19 1.06 1.07 1.17 1.15 1.31 1.54 1.59 1.53 1.44 1.45 1.49 1.53 1.49 1.36 1.28 1.16 1.22 1.30 1.34 1.44 1.42 1.33 1.29 1.32 1.31
1.95 2.38 2.63 2.68 2.60 2.27 1.53 1.23 0.99 0.88 0.86 0.79 0.79 0.87 0.97 0.89 1.01 1.17 1.16 1.22 1.34 1.28 1.20 1.11 1.06 1.10 1.20 1.21 1.20 1.49 1.59 1.52 1.33 1.27 1.37 1.40 1.21 1.16 1.17 1.16 1.42 1.44 1.53 1.64 1.60 1.52 1.45 1.34 1.33
1.98 2.36 2.44 2.00 1.62 1.54 1.31 1.17 1.06 1.11 1.15 0.94 0.86 0.87 0.92 0.91 0.96 1.02 1.02 1.03 1.06 1.00 0.90 0.87 0.88 0.97 1.09 1.13 1.45 1.69 1.53 1.45 1.20 1.21 1.13 1.17 1.21 1.29 1.15 1.24 1.57 1.63 1.69 1.71 1.73 1.67 1.51 1.22 1.04
1.65 2.01 1.72 1.50 1.24 1.04 1.07 1.07 0.87 1.04 1.23 1.00 0.92 0.88 0.93 0.98 0.96 0.99 0.97 0.86 0.83 0.75 0.68 0.64 0.60 0.61 0.70 0.91 1.25 1.55 1.69 1.68 1.64 1.45 1.24 1.23 1.06 0.95 0.93 1.00 1.19 1.29 1.40 1.37 1.43 1.42 1.19 1.06 1.04
1.60 1.57 1.39 1.37 1.02 0.98 0.97 0.92 0.87 0.90 0.97 0.87 0.94 0.85 0.84 0.91 0.93 0.91 0.91 0.85 0.74 0.72 0.68 0.59 0.55 0.50 0.52 0.59 0.77 0.99 1.18 1.28 1.34 1.24 1.11 1.17 1.05 0.95 0.97 0.98 0.97 0.97 1.10 1.25 1.25 1.26 1.16 1.04 0.97
1.67 1.64 1.32 1.08 0.96 0.90 0.83 0.81 0.81 0.88 0.81 0.74 0.86 0.93 0.95 0.92 0.91 0.96 1.01 0.96 0.83 0.82 0.83 0.72 0.59 0.54 0.54 0.57 0.63 0.70 0.88 1.00 1.03 1.08 1.02 1.04 1.06 1.04 1.00 0.93 0.93 0.85 0.97 1.13 1.23 1.20 1.14 1.15 1.11
1.48 1.47 1.48 1.28 1.06 0.96 0.94 0.83 0.72 0.87 0.85 0.82 0.91 0.99 0.96 0.97 0.88 0.88 0.92 0.99 0.93 0.88 0.87 0.84 0.71 0.67 0.64 0.60 0.61 0.64 0.73 0.81 0.84 0.82 0.83 0.94 1.03 1.02 1.02 0.99 1.02 0.99 1.04 1.18 1.20 1.12 1.18 1.28 1.19
1.34 1.59 1.60 1.41 1.15 1.03 1.04 1.13 0.85 0.79 0.86 0.91 1.00 0.95 0.87 0.91 0.86 0.84 0.83 0.85 0.88 0.87 0.82 0.81 0.80 0.80 0.79 0.73 0.68 0.66 0.73 0.79 0.79 0.77 0.72 0.75 0.85 0.91 0.96 0.98 0.98 1.03 1.15 1.22 1.28 1.12 1.17 1.18 1.12
1.69 2.02 2.13 1.54 1.28 1.10 1.23 1.39 0.93 0.86 0.90 0.85 0.86 0.83 0.79 0.83 0.79 0.77 0.81 0.78 0.78 0.73 0.71 0.76 0.76 0.77 0.81 0.81 0.81 0.83 0.81 0.86 0.81 0.80 0.73 0.69 0.75 0.85 0.99 1.01 0.98 1.01 1.17 1.31 1.39 1.30 1.29 1.28 1.23
1.90 1.94 1.84 1.51 1.21 1.10 1.12 1.10 0.85 0.86 0.91 0.78 0.76 0.74 0.70 0.69 0.67 0.63 0.68 0.73 0.72 0.67 0.66 0.65 0.69 0.68 0.75 0.81 0.84 0.95 0.97 0.97 0.91 0.89 0.79 0.77 0.83 0.94 1.13 1.23 1.22 1.21 1.25 1.28 1.28 1.38 1.41 1.41 1.38
1.57 1.47 1.35 1.26 1.04 0.97 0.95 0.80 0.67 0.72 0.75 0.69 0.62 0.59 0.58 0.58 0.54 0.53 0.56 0.61 0.63 0.65 0.63 0.60 0.64 0.65 0.68 0.80 0.92 1.08 1.20 1.17 1.17 1.08 0.95 0.96 1.11 1.28 1.46 1.46 1.54 1.59 1.49 1.49 1.45 1.50 1.47 1.41 1.47
1.04 1.13 1.15 1.05 0.81 0.81 0.77 0.65 0.60 0.62 0.65 0.64 0.57 0.50 0.48 0.49 0.47 0.44 0.47 0.53 0.55 0.57 0.59 0.58 0.56 0.63 0.66 0.71 0.84 1.05 1.34 1.45 1.55 1.47 1.27 1.20 1.32 1.58 1.82 1.80 1.89 1.96 1.87 1.83 1.83 2.06 2.01 1.73 1.54
1.02 1.20 1.17 1.04 0.75 0.68 0.67 0.58 0.49 0.50 0.57 0.53 0.51 0.48 0.42 0.43 0.37 0.33 0.35 0.39 0.41 0.45 0.51 0.52 0.51 0.59 0.63 0.68 0.85 1.00 1.16 1.17 1.34 1.47 1.43 1.34 1.34 1.50 1.64 1.91 2.05 2.03 2.13 2.25 2.22 2.59 2.73 2.25 1.82
1.01 1.03 1.00 0.97 0.79 0.67 0.62 0.63 0.47 0.43 0.47 0.44 0.41 0.41 0.36 0.36 0.35 0.33 0.32 0.32 0.33 0.35 0.36 0.38 0.41 0.48 0.60 0.74 0.93 1.13 1.33 1.42 1.49 1.42 1.50 1.50 1.42 1.47 1.58 1.74 1.89 1.93 2.05 2.21 2.31 2.65 3.18 2.94 2.31
0.94 0.69 0.63 0.69 0.87 0.91 0.72 0.85 0.56 0.47 0.50 0.45 0.39 0.35 0.33 0.33 0.33 0.38 0.35 0.38 0.35 0.32 0.29 0.31 0.40 0.52 0.71 0.90 1.12 1.36 1.56 1.61 1.51 1.55 1.58 1.46 1.39 1.35 1.44 1.58 1.71 1.84 1.88 2.03 2.13 2.26 2.81 3.21 2.89
0.62 0.53 0.51 0.58 0.75 0.73 0.55 0.65 0.57 0.46 0.56 0.51 0.44 0.39 0.34 0.32 0.33 0.35 0.34 0.37 0.37 0.34 0.35 0.41 0.60 0.83 1.06 1.27 1.52 1.78 1.76 1.65 1.56 1.56 1.55 1.49 1.49 1.45 1.45 1.59 1.66 1.69 1.76 1.88 2.21 2.48 2.76 3.01 3.00
0.43 0.50 0.55 0.62 0.77 0.76 0.47 0.54 0.59 0.44 0.47 0.50 0.48 0.41 0.33 0.29 0.35 0.43 0.49 0.57 0.62 0.64 0.77 0.95 1.21 1.39 1.48 1.59 1.73 1.84 1.78 1.79 1.74 1.56 1.49 1.48 1.52 1.58 1.61 1.65 1.66 1.64 1.69 1.80 2.05 2.34 2.56 2.87 3.07
0.42 0.69 0.99 1.04 1.03 0.75 0.39 0.56 0.62 0.43 0.36 0.37 0.39 0.33 0.28 0.33 0.43 0.57 0.73 0.85 0.97 1.11 1.27 1.41 1.56 1.69 1.64 1.60 1.65 1.69 1.67 1.64 1.63 1.57 1.50 1.44 1.46 1.51 1.53 1.61 1.72 1.80 1.84 1.96 2.14 2.29 2.21 2.41 2.80
0.42 0.62 1.04 1.17 0.98 0.69 0.52 0.76 0.70 0.50 0.37 0.29 0.23 0.22 0.32 0.47 0.61 0.73 0.81 0.91 1.08 1.25 1.33 1.33 1.42 1.52 1.49 1.46 1.43 1.41 1.47 1.47 1.41 1.33 1.31 1.36 1.45 1.45 1.38 1.41 1.51 1.63 1.82 1.88 1.93 1.96 1.93 2.03 2.29
0.38 0.42 0.47 0.71 0.61 0.61 0.68 0.83 0.72 0.47 0.40 0.32 0.28 0.31 0.45 0.67 0.88 1.03 1.14 1.24 1.28 1.33 1.41 1.33 1.31 1.37 1.38 1.33 1.25 1.24 1.28 1.33 1.32 1.25 1.26 1.25 1.26 1.18 1.10 1.10 1.16 1.24 1.31 1.39 1.54 1.64 1.77 1.81 1.93
0.30 0.40 0.55 0.84 0.95 0.98 0.93 0.93 0.81 0.61 0.52 0.54 0.61 0.71 0.75 0.85 1.12 1.40 1.65 1.81 1.64 1.38 1.30 1.29 1.22 1.22 1.31 1.30 1.22 1.17 1.23 1.24 1.23 1.23 1.20 1.20 1.19 1.11 1.02 0.98 0.95 0.94 0.91 0.94 1.14 1.34 1.47 1.56 1.71
0.33 0.47 0.59 0.77 0.88 1.15 1.38 1.34 1.02 1.00 0.98 1.03 1.12 1.16 1.16 1.26 1.25 1.41 1.60 1.78 1.68 1.38 1.16 1.20 1.24 1.22 1.23 1.23 1.22 1.19 1.15 1.06 1.05 1.08 1.07 1.07 1.06 1.10 1.07 0.97 0.92 1.01 1.01 0.97 1.03 1.09 1.17 1.23 1.36
0.45 0.56 0.72 1.02 0.95 0.94 1.23 1.34 1.07 1.04 1.06 1.12 1.29 1.35 1.33 1.24 1.16 1.14 1.20 1.27 1.30 1.16 0.98 0.95 1.11 1.19 1.16 1.14 1.16 1.13 1.03 0.96 0.95 0.92 0.87 0.78 0.74 0.76 0.85 0.94 0.88 0.87 0.91 0.93 0.99 1.01 1.06 1.10 1.20

GEFSSGP_prec_meanprecacc_258.txt.gz
Total_Precipitation_Accumulation
1.54 1.51 2.37 3.50 4.08 3.20 2.80 2.61 2.17 1.91 1.50 1.21 0.99 1.01 1.39 1.73 1.91 2.22 2.37 2.47 1.62 1.42 1.64 2.21 2.77 2.59 2.37 2.26 2.28 2.16 1.90 1.54 1.31 1.29 1.29 1.18 1.13 1.11 1.04 1.05 1.00 0.98 0.98 1.00 1.17 1.38 1.36 1.34 1.34
1.19 1.85 2.94 3.99 3.59 2.74 2.78 2.52 2.15 1.78 1.29 0.96 0.79 0.79 0.87 0.83 0.75 1.26 2.45 2.66 1.59 1.28 1.45 1.73 2.49 2.43 2.38 2.33 2.13 2.08 1.82 1.48 1.32 1.30 1.24 1.08 1.05 1.11 1.16 1.15 1.05 1.02 1.00 0.93 0.97 1.23 1.37 1.36 1.32
1.65 2.55 3.54 3.76 2.80 2.55 2.75 2.49 2.06 1.38 0.98 0.86 0.78 0.69 0.78 0.99 1.05 1.62 2.38 1.96 1.45 1.28 1.49 2.11 2.61 2.37 2.30 2.15 1.94 1.92 1.80 1.57 1.43 1.34 1.22 1.16 1.12 1.09 1.16 1.15 1.12 1.15 1.10 1.06 1.08 1.27 1.30 1.32 1.30
2.11 3.07 3.46 3.12 2.50 2.20 2.21 2.13 1.79 1.32 0.99 0.68 0.68 0.74 0.75 1.12 1.30 1.61 1.79 1.44 1.30 1.30 1.49 2.07 2.35 2.09 1.97 1.88 1.79 1.72 1.77 1.76 1.52 1.32 1.27 1.27 1.22 1.25 1.28 1.27 1.19 1.25 1.22 1.24 1.24 1.26 1.29 1.32 1.38
2.55 3.14 3.16 2.92 2.55 2.24 1.88 1.72 1.60 1.41 1.13 0.79 0.75 0.90 1.17 1.71 1.63 1.51 1.50 1.32 1.19 1.14 1.25 1.65 2.05 1.86 1.75 1.72 1.70 1.60 1.68 1.78 1.63 1.33 1.37 1.39 1.33 1.38 1.44 1.43 1.32 1.32 1.31 1.31 1.35 1.28 1.36 1.39 1.38
2.99 2.93 2.99 2.93 2.77 2.42 1.99 1.52 1.35 1.32 1.06 0.84 0.86 1.00 1.55 2.06 1.92 1.80 1.53 1.53 1.34 1.18 1.13 1.29 1.66 1.70 1.58 1.59 1.70 1.61 1.60 1.70 1.62 1.45 1.43 1.34 1.37 1.48 1.53 1.44 1.32 1.29 1.32 1.40 1.41 1.36 1.39 1.37 1.42
2.88 2.74 2.76 2.42 2.52 2.76 2.11 1.34 1.36 1.33 1.23 1.01 0.77 0.99 1.48 1.82 1.69 1.64 1.50 1.51 1.54 1.47 1.35 1.20 1.21 1.33 1.41 1.50 1.63 1.59 1.55 1.56 1.49 1.54 1.55 1.53 1.53 1.50 1.41 1.35 1.30 1.31 1.36 1.41 1.40 1.32 1.31 1.36 1.42
2.35 2.40 2.34 2.33 2.53 2.68 1.92 1.20 1.06 1.20 1.16 0.80 0.83 1.09 1.35 1.35 1.31 1.34 1.42 1.59 1.60 1.55 1.42 1.19 1.07 1.08 1.19 1.17 1.35 1.57 1.61 1.57 1.48 1.51 1.57 1.62 1.57 1.42 1.35 1.22 1.31 1.39 1.42 1.51 1.47 1.38 1.33 1.38 1.38
1.95 2.38 2.63 2.69 2.60 2.28 1.54 1.23 0.99 0.89 0.87 0.80 0.79 0.87 0.98 0.90 1.02 1.17 1.16 1.22 1.35 1.29 1.21 1.12 1.06 1.10 1.20 1.22 1.22 1.52 1.61 1.53 1.35 1.30 1.44 1.45 1.25 1.20 1.22 1.23 1.52 1.53 1.60 1.71 1.65 1.56 1.51 1.39 1.38
1.98 2.36 2.44 2.00 1.62 1.54 1.32 1.17 1.06 1.12 1.15 0.94 0.86 0.87 0.92 0.91 0.97 1.03 1.02 1.04 1.07 1.00 0.91 0.89 0.89 0.98 1.09 1.14 1.46 1.70 1.54 1.46 1.21 1.22 1.15 1.19 1.23 1.33 1.19 1.30 1.65 1.70 1.75 1.75 1.77 1.71 1.54 1.23 1.05
1.65 2.01 1.72 1.50 1.24 1.04 1.08 1.08 0.88 1.04 1.23 1.00 0.92 0.88 0.94 0.99 0.97 1.00 0.98 0.87 0.84 0.77 0.69 0.65 0.61 0.63 0.71 0.91 1.26 1.56 1.70 1.69 1.65 1.46 1.25 1.24 1.07 0.98 0.95 1.03 1.21 1.31 1.42 1.38 1.44 1.43 1.20 1.07 1.05
1.60 1.58 1.40 1.38 1.03 0.98 0.98 0.93 0.88 0.90 0.98 0.88 0.95 0.86 0.85 0.92 0.94 0.92 0.92 0.86 0.74 0.72 0.68 0.59 0.55 0.51 0.53 0.60 0.78 1.00 1.20 1.29 1.35 1.26 1.12 1.17 1.05 0.96 0.98 0.99 0.98 0.98 1.10 1.25 1.26 1.26 1.16 1.04 0.98
1.67 1.65 1.33 1.09 0.97 0.91 0.84 0.81 0.82 0.89 0.81 0.75 0.87 0.94 0.96 0.93 0.92 0.97 1.02 0.97 0.83 0.83 0.83 0.73 0.60 0.55 0.55 0.59 0.64 0.71 0.89 1.01 1.05 1.09 1.03 1.05 1.07 1.04 1.00 0.93 0.93 0.86 0.97 1.14 1.24 1.21 1.15 1.16 1.12
1.48 1.47 1.48 1.29 1.07 0.97 0.96 0.84 0.73 0.88 0.85 0.83 0.93 1.01 0.97 0.98 0.89 0.88 0.93 0.99 0.93 0.88 0.87 0.85 0.72 0.68 0.65 0.62 0.62 0.65 0.74 0.82 0.85 0.83 0.84 0.95 1.05 1.03 1.02 1.00 1.03 1.00 1.05 1.18 1.20 1.13 1.19 1.29 1.21
1.34 1.59 1.60 1.41 1.15 1.04 1.05 1.14 0.85 0.80 0.87 0.92 1.02 0.96 0.88 0.92 0.87 0.85 0.83 0.85 0.89 0.87 0.82 0.82 0.81 0.82 0.80 0.75 0.69 0.67 0.73 0.80 0.80 0.78 0.73 0.76 0.85 0.91 0.96 0.98 0.98 1.03 1.15 1.23 1.28 1.13 1.18 1.19 1.13
1.69 2.03 2.13 1.55 1.29 1.10 1.23 1.39 0.94 0.87 0.91 0.87 0.87 0.83 0.80 0.84 0.81 0.79 0.81 0.78 0.78 0.74 0.72 0.77 0.76 0.78 0.83 0.84 0.82 0.84 0.82 0.87 0.81 0.80 0.74 0.70 0.76 0.85 0.99 1.01 0.98 1.01 1.17 1.31 1.39 1.31 1.30 1.28 1.24
1.90 1.94 1.84 1.51 1.22 1.11 1.12 1.10 0.85 0.87 0.95 0.80 0.77 0.74 0.71 0.69 0.68 0.64 0.69 0.74 0.73 0.67 0.67 0.66 0.70 0.69 0.75 0.82 0.85 0.95 0.97 0.98 0.92 0.89 0.80 0.77 0.84 0.94 1.13 1.23 1.23 1.22 1.25 1.29 1.29 1.39 1.42 1.41 1.41
1.57 1.47 1.36 1.27 1.05 0.98 0.95 0.80 0.68 0.73 0.78 0.71 0.62 0.59 0.58 0.58 0.54 0.53 0.57 0.61 0.64 0.65 0.64 0.62 0.65 0.66 0.69 0.81 0.92 1.09 1.20 1.17 1.17 1.08 0.96 0.96 1.11 1.29 1.46 1.46 1.54 1.60 1.50 1.49 1.46 1.51 1.47 1.42 1.49
1.04 1.13 1.16 1.07 0.82 0.81 0.78 0.65 0.60 0.62 0.66 0.65 0.57 0.50 0.48 0.50 0.47 0.45 0.48 0.54 0.55 0.58 0.60 0.59 0.56 0.64 0.67 0.71 0.84 1.06 1.35 1.45 1.55 1.47 1.27 1.21 1.32 1.58 1.83 1.80 1.89 1.96 1.87 1.83 1.84 2.07 2.02 1.74 1.56
1.03 1.21 1.18 1.06 0.75 0.69 0.68 0.58 0.50 0.50 0.57 0.54 0.52 0.49 0.43 0.44 0.38 0.34 0.35 0.39 0.42 0.46 0.52 0.53 0.52 0.59 0.64 0.70 0.86 1.01 1.17 1.18 1.35 1.47 1.43 1.35 1.35 1.50 1.64 1.92 2.06 2.04 2.14 2.25 2.24 2.61 2.75 2.26 1.84
1.01 1.04 1.01 0.97 0.79 0.68 0.63 0.64 0.47 0.43 0.47 0.44 0.41 0.42 0.38 0.37 0.36 0.33 0.32 0.33 0.34 0.36 0.36 0.38 0.42 0.50 0.61 0.75 0.95 1.16 1.35 1.43 1.50 1.42 1.50 1.51 1.43 1.47 1.59 1.74 1.89 1.93 2.05 2.22 2.33 2.66 3.20 2.96 2.32
0.94 0.69 0.63 0.70 0.88 0.92 0.73 0.86 0.57 0.47 0.50 0.45 0.39 0.35 0.34 0.34 0.34 0.39 0.35 0.38 0.36 0.33 0.30 0.33 0.42 0.55 0.73 0.93 1.15 1.38 1.58 1.62 1.52 1.55 1.58 1.47 1.39 1.36 1.45 1.59 1.72 1.84 1.88 2.04 2.13 2.27 2.83 3.23 2.91
0.63 0.53 0.51 0.59 0.76 0.73 0.55 0.66 0.57 0.46 0.56 0.51 0.44 0.39 0.34 0.32 0.34 0.35 0.34 0.38 0.38 0.36 0.38 0.44 0.63 0.85 1.08 1.28 1.53 1.80 1.77 1.66 1.57 1.56 1.55 1.50 1.49 1.46 1.45 1.59 1.67 1.69 1.76 1.88 2.22 2.49 2.78 3.02 3.01
0.43 0.51 0.56 0.63 0.78 0.77 0.48 0.54 0.59 0.44 0.47 0.50 0.48 0.41 0.33 0.30 0.36 0.43 0.49 0.58 0.63 0.65 0.79 0.97 1.23 1.41 1.49 1.60 1.75 1.86 1.80 1.80 1.75 1.56 1.49 1.48 1.53 1.58 1.61 1.65 1.66 1.65 1.69 1.81 2.05 2.35 2.58 2.89 3.09
0.42 0.70 1.01 1.05 1.04 0.75 0.39 0.56 0.62 0.43 0.36 0.37 0.39 0.34 0.28 0.33 0.43 0.57 0.73 0.86 0.99 1.13 1.28 1.42 1.57 1.70 1.65 1.62 1.67 1.71 1.69 1.66 1.64 1.57 1.50 1.44 1.46 1.51 1.53 1.61 1.73 1.80 1.85 1.97 2.15 2.30 2.24 2.44 2.83
0.43 0.64 1.06 1.18 0.99 0.70 0.52 0.76 0.70 0.50 0.37 0.29 0.23 0.22 0.32 0.47 0.61 0.73 0.81 0.92 1.09 1.26 1.34 1.34 1.43 1.53 1.50 1.48 1.46 1.44 1.49 1.49 1.43 1.34 1.31 1.36 1.45 1.45 1.39 1.42 1.51 1.65 1.83 1.89 1.95 2.00 1.96 2.06 2.31
0.40 0.43 0.48 0.72 0.61 0.62 0.68 0.83 0.72 0.48 0.40 0.32 0.28 0.31 0.45 0.67 0.88 1.03 1.14 1.24 1.28 1.34 1.42 1.34 1.32 1.38 1.39 1.34 1.28 1.27 1.30 1.35 1.34 1.26 1.26 1.25 1.26 1.19 1.11 1.11 1.17 1.25 1.32 1.42 1.58 1.68 1.79 1.83 1.96
0.31 0.41 0.56 0.85 0.96 0.99 0.93 0.93 0.81 0.61 0.53 0.54 0.61 0.71 0.75 0.85 1.12 1.41 1.65 1.82 1.64 1.38 1.30 1.29 1.23 1.23 1.33 1.31 1.25 1.20 1.26 1.26 1.24 1.24 1.20 1.20 1.20 1.11 1.02 0.98 0.96 0.95 0.92 0.96 1.16 1.37 1.49 1.57 1.72
0.34 0.48 0.60 0.79 0.90 1.17 1.39 1.34 1.02 1.00 0.98 1.03 1.12 1.16 1.16 1.26 1.26 1.41 1.61 1.78 1.69 1.38 1.16 1.20 1.25 1.24 1.24 1.24 1.25 1.21 1.17 1.08 1.07 1.09 1.08 1.07 1.06 1.10 1.07 0.97 0.92 1.02 1.03 0.98 1.04 1.11 1.18 1.25 1.38
0.45 0.57 0.73 1.04 0.97 0.96 1.25 1.35 1.07 1.05 1.06 1.13 1.29 1.35 1.34 1.25 1.16 1.15 1.21 1.28 1.31 1.17 0.98 0.95 1.11 1.19 1.17 1.15 1.18 1.15 1.05 0.98 0.95 0.93 0.88 0.78 0.74 0.76 0.86 0.95 0.89 0.87 0.92 0.94 0.99 1.02 1.06 1.11 1.21